This is the latest recevied weather packets stored in our database for station/object WA1TYB-13. If no packets are shown the sender has not sent any weather packets the latest 10 day(s).
| Time | Temp. | Humidity | Pressure | Rain* | Wind** | Luminosity | Snow |
|---|---|---|---|---|---|---|---|
| 1777612234 | 5.56° C | 52% | 1022 hPa | 0 mm | - | 0 W/m² | - |
| 1777611929 | 5.56° C | 53% | 1022 hPa | 0 mm | - | 0 W/m² | - |
| 1777611625 | 6.67° C | 52% | 1022.1 hPa | 0 mm | - | 0 W/m² | - |
| 1777611321 | 7.22° C | 48% | 1021.8 hPa | 0 mm | - | 0 W/m² | - |
| 1777611019 | 7.78° C | 47% | 1022 hPa | 0 mm | - | 0 W/m² | - |
| 1777610715 | 7.22° C | 48% | 1022.1 hPa | 0 mm | - | 0 W/m² | - |
| 1777610414 | 7.78° C | 50% | 1022 hPa | 0 mm | - | 0 W/m² | - |
| 1777610110 | 7.78° C | 48% | 1022 hPa | 0 mm | - | 0 W/m² | - |
| 1777609807 | 7.78° C | 48% | 1021.7 hPa | 0 mm | - | 0 W/m² | - |
| 1777609503 | 7.78° C | 49% | 1022.1 hPa | 0 mm | - | 0 W/m² | - |
| 1777609201 | 7.22° C | 49% | 1021.7 hPa | 0 mm | - | 0 W/m² | - |
| 1777608898 | 8.89° C | 45% | 1021.6 hPa | 0 mm | - | 0 W/m² | - |
| 1777608594 | 8.89° C | 45% | 1021.5 hPa | 0 mm | - | 0 W/m² | - |
| 1777608292 | 9.44° C | 44% | 1021.6 hPa | 0 mm | - | 0 W/m² | - |
| 1777607990 | 8.89° C | 44% | 1021.4 hPa | 0 mm | - | 0 W/m² | - |
| 1777607685 | 8.89° C | 46% | 1021.6 hPa | 0 mm | - | 0 W/m² | - |
| 1777607382 | 8.33° C | 48% | 1021.5 hPa | 0 mm | - | 0 W/m² | - |
| 1777607078 | 8.33° C | 48% | 1021.5 hPa | 0 mm | - | 0 W/m² | - |
| 1777606774 | 9.44° C | 44% | 1021.6 hPa | 0 mm | - | 0 W/m² | - |
| 1777606469 | 10° C | 41% | 1021.4 hPa | 0 mm | - | 0 W/m² | - |
| 1777606165 | 10.56° C | 37% | 1021.3 hPa | 0 mm | - | 0 W/m² | - |
| 1777605861 | 10.56° C | 37% | 1021.4 hPa | 0 mm | - | 0 W/m² | - |
| 1777605561 | 11.11° C | 36% | 1021.2 hPa | 0 mm | - | 0 W/m² | - |
| 1777605256 | 12.22° C | 33% | 1021.2 hPa | 0 mm | - | 0 W/m² | - |
| 1777604953 | 12.22° C | 32% | 1021.2 hPa | 0 mm | - | 0 W/m² | - |
* Rain latest hour (hover to see other rain measurements)
** Current wind speed in m/s (hover to see current wind gust speed)